Date String (YYYY-MM-DD hh:mm:ss) UTC,Instrument flags,Ambient pressure (hPa),Sample flow (lpm),Bypass flow (lpm),Sample temperature (°C),Ambient temperature (°C),ASC tube jacket temperature (°C),LED temperature (°C),Box temperature (°C),Sample RH (%),Span deviation,Mass concentration (μg/m³),Mass concentration (μg/m³),Mass concentration (μg/m³)
DateTimeUTC,F1_M11,P_M11,Q1_M11,Q2_M11,T1_M11,T2_M11,T3_M11,T4_M11,T5_M11,U1_M11,ZSPAN_M11,X0_M11,X2_M11,X1_M11
2022-03-11 00:00:00,,0823.4,5.00,0.00,21.8,21.2,00.0,30.8,23.5,06.7,0000.0,0011.54,0008.05,0007.70
2022-03-11 00:01:00,,0823.3,5.00,0.00,21.8,21.2,00.0,30.8,23.5,06.7,0000.0,0011.08,0008.06,0007.68
2022-03-11 00:02:00,,0823.3,5.00,0.00,21.8,21.2,00.0,30.8,23.5,06.6,0000.0,0010.80,0008.03,0007.67
2022-03-11 00:03:00,,0823.3,5.01,0.00,21.9,21.8,00.0,30.9,23.7,06.6,0000.0,0010.72,0007.98,0007.63
2022-03-11 00:04:00,,0823.3,5.00,0.00,22.0,22.6,00.0,30.9,24.0,06.6,0000.0,0010.55,0007.93,0007.59
2022-03-11 00:05:00,,0823.4,5.00,0.00,22.1,22.8,00.0,30.9,24.1,06.5,0000.0,0010.56,0007.93,0007.59
2022-03-11 00:06:00,,0823.4,4.99,0.00,22.2,22.5,00.0,31.0,24.1,06.5,0000.0,0010.54,0007.90,0007.58
2022-03-11 00:07:00,,0823.5,5.00,0.00,22.2,22.2,00.0,31.0,24.1,06.6,0000.0,0011.28,0007.87,0007.54
2022-03-11 00:08:00,,0823.5,5.00,0.00,22.2,21.9,00.0,31.0,24.0,06.4,0000.0,0011.22,0007.82,0007.50
2022-03-11 00:09:00,,0823.5,5.01,0.00,22.1,21.7,00.0,31.0,23.9,06.4,0000.0,0011.22,0007.80,0007.48
2022-03-11 00:10:00,,0823.5,5.00,0.00,22.1,21.5,00.0,31.0,23.9,06.3,0000.0,0011.18,0007.75,0007.43
2022-03-11 00:11:00,,0823.5,4.99,0.00,22.1,21.4,00.0,31.0,23.9,06.4,0000.0,0010.77,0007.69,0007.38
2022-03-11 00:12:00,,0823.6,4.99,0.00,22.1,21.4,00.0,31.0,23.8,06.3,0000.1,0010.68,0007.61,0007.33
2022-03-11 00:13:00,,0823.6,5.00,0.00,22.0,21.3,00.0,31.0,23.8,06.3,0000.0,0010.70,0007.56,0007.28
2022-03-11 00:14:00,,0823.5,5.01,0.00,22.0,21.3,00.0,31.0,23.8,06.3,0001.2,0010.64,0007.51,0007.23
2022-03-11 00:15:00,,0823.5,4.99,0.00,22.0,21.3,00.0,31.0,23.7,06.3,0000.9,0010.71,0007.51,0007.21
2022-03-11 00:16:00,,0823.6,5.00,0.00,22.0,21.3,00.0,31.0,23.7,06.3,0000.0,0010.67,0007.48,0007.18
2022-03-11 00:17:00,,0823.6,5.01,0.00,22.0,21.3,00.0,31.0,23.7,06.2,0000.0,0010.73,0007.50,0007.16
2022-03-11 00:18:00,,0823.6,5.00,0.00,22.0,21.3,00.0,31.0,23.7,06.2,0000.0,0010.00,0007.47,0007.14
2022-03-11 00:19:00,,0823.7,5.00,0.00,22.0,21.3,00.0,31.0,23.7,06.2,0000.0,0010.66,0007.47,0007.13
2022-03-11 00:20:00,,0823.7,5.00,0.00,22.0,21.3,00.0,31.0,23.7,06.2,0000.0,0010.62,0007.43,0007.10
2022-03-11 00:21:00,,0823.6,4.99,0.00,22.0,21.3,00.0,31.0,23.7,06.2,0000.0,0010.61,0007.44,0007.11
2022-03-11 00:22:00,,0823.6,5.02,0.00,22.0,21.2,00.0,31.0,23.7,06.3,0000.0,0010.94,0007.44,0007.13
2022-03-11 00:23:00,,0823.6,5.00,0.00,22.0,21.2,00.0,31.0,23.8,06.2,0000.0,0011.20,0007.43,0007.13
2022-03-11 00:24:00,,0823.7,4.99,0.00,22.0,21.3,00.0,31.0,23.8,06.1,0000.0,0011.57,0007.43,0007.11
2022-03-11 00:25:00,,0823.7,5.01,0.00,22.0,21.3,00.0,31.0,23.8,06.1,0000.0,0011.63,0007.39,0007.08
2022-03-11 00:26:00,,0823.6,4.99,0.00,22.0,21.3,00.0,31.0,23.8,06.1,0000.0,0011.51,0007.35,0007.04
2022-03-11 00:27:00,,0823.6,5.00,0.00,22.0,21.3,00.0,31.0,23.8,06.0,0000.0,0011.46,0007.30,0007.00
2022-03-11 00:28:00,,0823.6,5.02,0.00,22.0,21.3,00.0,31.0,23.8,06.0,0000.0,0011.29,0007.24,0006.97
2022-03-11 00:29:00,,0823.6,5.00,0.00,22.0,21.3,00.0,31.0,23.8,06.1,0000.0,0011.23,0007.23,0006.96
2022-03-11 00:30:00,,0823.6,5.00,0.00,22.0,21.3,00.0,31.0,23.8,06.1,0000.0,0010.50,0007.20,0006.93
2022-03-11 00:31:00,,0823.6,4.99,0.00,22.0,21.3,00.0,31.0,23.8,06.1,0000.0,0010.61,0007.23,0006.91
2022-03-11 00:32:00,,0823.6,5.00,0.00,22.0,21.3,00.0,31.0,23.8,06.1,0000.0,0010.90,0007.20,0006.87
2022-03-11 00:33:00,,0823.7,5.00,0.00,22.0,21.3,00.0,31.0,23.8,06.1,0000.0,0010.80,0007.16,0006.83
2022-03-11 00:34:00,,0823.6,5.00,0.00,22.0,21.3,00.0,31.0,23.8,06.1,0000.0,0010.49,0007.14,0006.81
2022-03-11 00:35:00,,0823.7,5.02,0.00,22.0,21.3,00.0,31.0,23.8,06.2,0000.0,0010.01,0007.11,0006.81
2022-03-11 00:36:00,,0823.6,5.00,0.00,22.0,21.3,00.0,31.0,23.8,06.2,0000.0,0010.00,0007.14,0006.82
2022-03-11 00:37:00,,0823.6,5.00,0.00,22.0,21.3,00.0,31.0,23.8,06.2,0000.0,0010.05,0007.12,0006.81
2022-03-11 00:38:00,,0823.6,4.99,0.00,22.0,21.3,00.0,31.0,23.8,06.1,0000.0,0010.15,0007.17,0006.82
2022-03-11 00:39:00,,0823.7,5.00,0.00,22.0,21.3,00.0,31.0,23.8,06.1,0000.0,0010.18,0007.20,0006.84
2022-03-11 00:40:00,,0823.7,5.00,0.00,22.0,21.3,00.0,31.0,23.8,06.1,0000.0,0010.25,0007.24,0006.87
2022-03-11 00:41:00,,0823.6,5.01,0.00,22.0,21.3,00.0,31.0,23.8,06.0,0000.0,0010.50,0007.27,0006.90
2022-03-11 00:42:00,,0823.7,5.01,0.00,22.0,21.3,00.0,31.0,23.8,06.0,0000.0,0010.88,0007.25,0006.92
2022-03-11 00:43:00,,0823.8,5.00,0.00,22.0,21.3,00.0,31.0,23.8,06.0,0000.0,0010.66,0007.27,0006.93
2022-03-11 00:44:00,,0823.7,5.00,0.00,22.0,21.3,00.0,31.0,23.8,06.0,0000.0,0010.47,0007.31,0006.94
2022-03-11 00:45:00,,0823.8,4.99,0.00,22.0,21.3,00.0,31.0,23.8,06.0,0000.0,0010.53,0007.33,0006.94
2022-03-11 00:46:00,,0823.8,4.99,0.00,22.1,21.4,00.0,31.0,23.8,06.0,0000.0,0010.69,0007.36,0006.95
2022-03-11 00:47:00,,0823.8,5.00,0.00,22.1,22.0,00.0,31.0,24.0,06.0,0000.0,0010.73,0007.36,0006.95
2022-03-11 00:48:00,,0823.8,4.99,0.00,22.3,22.6,00.0,31.1,24.2,06.0,0000.0,0010.70,0007.37,0006.95
2022-03-11 00:49:00,,0823.8,5.01,0.00,22.3,22.7,00.0,31.1,24.3,05.9,0000.0,0010.67,0007.34,0006.94
2022-03-11 00:50:00,,0823.8,4.98,0.00,22.4,22.5,00.0,31.1,24.4,05.9,0000.0,0010.63,0007.30,0006.91
2022-03-11 00:51:00,,0823.9,5.00,0.00,22.4,22.4,00.0,31.2,24.3,05.9,0000.0,0010.50,0007.22,0006.86
2022-03-11 00:52:00,,0823.8,5.00,0.00,22.4,22.2,00.0,31.2,24.3,05.9,0000.0,0010.25,0007.22,0006.84
2022-03-11 00:53:00,,0823.8,5.00,0.00,22.4,22.1,00.0,31.2,24.3,05.9,0000.0,0009.75,0007.19,0006.84
2022-03-11 00:54:00,,0823.8,5.00,0.00,22.4,22.0,00.0,31.2,24.3,05.9,0000.0,0009.83,0007.22,0006.84
2022-03-11 00:55:00,,0823.9,5.00,0.00,22.4,22.0,00.0,31.2,24.3,05.9,0000.0,0009.76,0007.21,0006.84
2022-03-11 00:56:00,,0823.9,4.99,0.00,22.4,21.9,00.0,31.2,24.2,05.9,0000.0,0009.71,0007.18,0006.83
2022-03-11 00:57:00,,0823.9,5.00,0.00,22.4,21.9,00.0,31.2,24.2,05.9,0000.0,0009.60,0007.14,0006.82
2022-03-11 00:58:00,,0823.9,5.01,0.00,22.4,21.8,00.0,31.2,24.2,05.9,0000.0,0009.54,0007.14,0006.82
2022-03-11 00:59:00,,0823.9,5.00,0.00,22.4,21.8,00.0,31.2,24.2,05.9,0000.0,0009.58,0007.16,0006.83
